Location: *
(40.7765°S, 106.5327°E)
Time: 11:45:14
(UTC+00:00)

IRIDIUM 106 - Visible Passes

Search period start: 26 September 2022 00:00
Search period end: 06 October 2022 00:00
Orbit: 776 x 779 km, 86.4° (Epoch: 26 September)

Date Brightness Start Highest point End Pass type
(mag) Time Alt. Az. Time Alt. Az. Time Alt. Az.
26 Sep 4.4 12:06:53 10° S 12:12:12 81° W 12:17:27 10° N visible
27 Sep 4.5 11:33:26 10° S 11:38:39 55° E 11:43:47 10° NNE visible
27 Sep 7.1 13:15:30 10° SW 13:18:50 17° WSW 13:22:09 10° WNW visible
28 Sep 6.2 12:41:01 10° SSW 12:45:36 31° W 12:50:09 10° NW visible
29 Sep 5.1 12:07:04 10° SSW 12:12:15 56° W 12:17:22 10° NNW visible
30 Sep 4.3 11:33:27 10° S 11:38:47 80° E 11:44:02 10° N visible
30 Sep 7.5 13:16:57 10° SW 13:18:41 12° WSW 13:20:26 10° W visible
01 Oct 6.9 12:41:36 10° SSW 12:45:33 22° W 12:49:27 10° NW visible
02 Oct 5.9 12:07:23 10° SSW 12:12:16 39° W 12:17:05 10° NNW visible
03 Oct 4.7 11:33:34 10° S 11:38:52 72° W 11:44:05 10° N visible
04 Oct 7.4 12:42:31 10° SW 12:45:26 15° WSW 12:48:19 10° WNW visible
05 Oct 6.7 12:07:50 10° SSW 12:12:13 27° W 12:16:34 10° NW visible
